Location: Newark
(45.5000°N, 11.4167°E)
Time: 20:08:13
(UTC+00:00)

A-11 Canister half - Pass Details

Date: 27 August 2019
Orbit: 1514 x 1686 km, 47.2° (Epoch: 13 October)

Event Time Altitude Azimuth Distance (km) Brightness Sun altitude
Rises 16:07:30 0° 234° (SW) 4,654 12.5 19.1°
Reaches altitude 10° 16:10:31 10° 232° (SW) 3,684 12.1 18.6°
Maximum altitude 16:19:42 69° 152° (SSE) 1,642 9.4 16.9°
Drops below altitude 10° 16:29:14 10° 72° (ENE) 3,807 10.6 15.3°
Sets 16:32:24 0° 70° (ENE) 4,818 11.0 14.7°
